﻿測定場所 (Monitoring sites),日付 (Measurement date),時間 (Measurement time),線量率 最大値 (max) μGy/h,線量率 最小値 (min) μGy/h,線量率 平均値 (average) μGy/h,
江戸川 (Edogawa),2013-12-15,23:01～24:00,0.0848,0.0742,0.0803,
江戸川 (Edogawa),2013-12-15,22:01～23:00,0.0850,0.0747,0.0803,
江戸川 (Edogawa),2013-12-15,21:01～22:00,0.0877,0.0746,0.0804,
江戸川 (Edogawa),2013-12-15,20:01～21:00,0.0875,0.0717,0.0798,
江戸川 (Edogawa),2013-12-15,19:01～20:00,0.0853,0.0739,0.0802,
江戸川 (Edogawa),2013-12-15,18:01～19:00,0.0843,0.0734,0.0795,
江戸川 (Edogawa),2013-12-15,17:01～18:00,0.0857,0.0756,0.0801,
江戸川 (Edogawa),2013-12-15,16:01～17:00,0.0868,0.0740,0.0800,
江戸川 (Edogawa),2013-12-15,15:01～16:00,0.0860,0.0744,0.0800,
江戸川 (Edogawa),2013-12-15,14:01～15:00,0.0862,0.0749,0.0808,
江戸川 (Edogawa),2013-12-15,13:01～14:00,0.0858,0.0751,0.0810,
江戸川 (Edogawa),2013-12-15,12:01～13:00,0.0867,0.0745,0.0806,
江戸川 (Edogawa),2013-12-15,11:01～12:00,0.0858,0.0753,0.0802,
江戸川 (Edogawa),2013-12-15,10:01～11:00,0.0857,0.0752,0.0803,
江戸川 (Edogawa),2013-12-15,09:01～10:00,0.0866,0.0748,0.0803,
江戸川 (Edogawa),2013-12-15,08:01～09:00,0.0866,0.0729,0.0795,
江戸川 (Edogawa),2013-12-15,07:01～08:00,0.0845,0.0740,0.0792,
江戸川 (Edogawa),2013-12-15,06:01～07:00,0.0846,0.0733,0.0792,
江戸川 (Edogawa),2013-12-15,05:01～06:00,0.0849,0.0741,0.0793,
江戸川 (Edogawa),2013-12-15,04:01～05:00,0.0846,0.0734,0.0790,
江戸川 (Edogawa),2013-12-15,03:01～04:00,0.0864,0.0757,0.0798,
江戸川 (Edogawa),2013-12-15,02:01～03:00,0.0847,0.0734,0.0797,
江戸川 (Edogawa),2013-12-15,01:01～02:00,0.0855,0.0747,0.0797,
江戸川 (Edogawa),2013-12-15,00:01～01:00,0.0851,0.0742,0.0794,
江戸川 (Edogawa),2013-12-14,23:01～24:00,0.0857,0.0740,0.0792,
江戸川 (Edogawa),2013-12-14,22:01～23:00,0.0871,0.0719,0.0791,
江戸川 (Edogawa),2013-12-14,21:01～22:00,0.0851,0.0734,0.0795,
江戸川 (Edogawa),2013-12-14,20:01～21:00,0.0852,0.0752,0.0799,
江戸川 (Edogawa),2013-12-14,19:01～20:00,0.0847,0.0732,0.0795,
江戸川 (Edogawa),2013-12-14,18:01～19:00,0.0860,0.0745,0.0797,
江戸川 (Edogawa),2013-12-14,17:01～18:00,0.0864,0.0747,0.0802,
江戸川 (Edogawa),2013-12-14,16:01～17:00,0.0856,0.0729,0.0797,
江戸川 (Edogawa),2013-12-14,15:01～16:00,0.0860,0.0754,0.0802,
江戸川 (Edogawa),2013-12-14,14:01～15:00,0.0857,0.0723,0.0804,
江戸川 (Edogawa),2013-12-14,13:01～14:00,0.0852,0.0757,0.0805,
江戸川 (Edogawa),2013-12-14,12:01～13:00,0.0906,0.0754,0.0801,
江戸川 (Edogawa),2013-12-14,11:01～12:00,0.0848,0.0730,0.0802,
江戸川 (Edogawa),2013-12-14,10:01～11:00,0.0870,0.0752,0.0803,
江戸川 (Edogawa),2013-12-14,09:01～10:00,0.0874,0.0750,0.0797,
江戸川 (Edogawa),2013-12-14,08:01～09:00,0.0849,0.0730,0.0786,
江戸川 (Edogawa),2013-12-14,07:01～08:00,0.0845,0.0743,0.0789,
江戸川 (Edogawa),2013-12-14,06:01～07:00,0.0840,0.0730,0.0782,
江戸川 (Edogawa),2013-12-14,05:01～06:00,0.0872,0.0740,0.0792,
江戸川 (Edogawa),2013-12-14,04:01～05:00,0.0839,0.0723,0.0795,
江戸川 (Edogawa),2013-12-14,03:01～04:00,0.0853,0.0719,0.0799,
江戸川 (Edogawa),2013-12-14,02:01～03:00,0.0851,0.0732,0.0794,
江戸川 (Edogawa),2013-12-14,01:01～02:00,0.0848,0.0739,0.0796,
江戸川 (Edogawa),2013-12-14,00:01～01:00,0.0835,0.0725,0.0787,
江戸川 (Edogawa),2013-12-13,23:01～24:00,0.0835,0.0744,0.0795,
江戸川 (Edogawa),2013-12-13,22:01～23:00,0.0844,0.0742,0.0796,
江戸川 (Edogawa),2013-12-13,21:01～22:00,0.0845,0.0744,0.0798,
江戸川 (Edogawa),2013-12-13,20:01～21:00,0.0858,0.0736,0.0803,
江戸川 (Edogawa),2013-12-13,19:01～20:00,0.0877,0.0749,0.0805,
江戸川 (Edogawa),2013-12-13,18:01～19:00,0.0868,0.0729,0.0795,
江戸川 (Edogawa),2013-12-13,17:01～18:00,0.0862,0.0732,0.0798,
江戸川 (Edogawa),2013-12-13,16:01～17:00,0.0870,0.0744,0.0804,
江戸川 (Edogawa),2013-12-13,15:01～16:00,0.0853,0.0739,0.0801,
江戸川 (Edogawa),2013-12-13,14:01～15:00,0.0882,0.0743,0.0801,
江戸川 (Edogawa),2013-12-13,13:01～14:00,0.0850,0.0738,0.0801,
江戸川 (Edogawa),2013-12-13,12:01～13:00,0.0858,0.0750,0.0803,
江戸川 (Edogawa),2013-12-13,11:01～12:00,0.0855,0.0741,0.0797,
江戸川 (Edogawa),2013-12-13,10:01～11:00,0.0841,0.0742,0.0796,
江戸川 (Edogawa),2013-12-13,09:01～10:00,0.0854,0.0739,0.0795,
江戸川 (Edogawa),2013-12-13,08:01～09:00,0.0849,0.0717,0.0791,
江戸川 (Edogawa),2013-12-13,07:01～08:00,0.0849,0.0744,0.0789,
江戸川 (Edogawa),2013-12-13,06:01～07:00,0.0857,0.0750,0.0795,
江戸川 (Edogawa),2013-12-13,05:01～06:00,0.0844,0.0739,0.0797,
江戸川 (Edogawa),2013-12-13,04:01～05:00,0.0843,0.0737,0.0794,
江戸川 (Edogawa),2013-12-13,03:01～04:00,0.0842,0.0752,0.0791,
江戸川 (Edogawa),2013-12-13,02:01～03:00,0.0833,0.0737,0.0797,
江戸川 (Edogawa),2013-12-13,01:01～02:00,0.0860,0.0752,0.0793,
江戸川 (Edogawa),2013-12-13,00:01～01:00,0.0862,0.0740,0.0798,
江戸川 (Edogawa),2013-12-12,23:01～24:00,0.0850,0.0735,0.0792,
江戸川 (Edogawa),2013-12-12,22:01～23:00,0.0867,0.0738,0.0797,
江戸川 (Edogawa),2013-12-12,21:01～22:00,0.0855,0.0749,0.0800,
江戸川 (Edogawa),2013-12-12,20:01～21:00,0.0843,0.0736,0.0791,
江戸川 (Edogawa),2013-12-12,19:01～20:00,0.0873,0.0731,0.0793,
江戸川 (Edogawa),2013-12-12,18:01～19:00,0.0867,0.0733,0.0796,
江戸川 (Edogawa),2013-12-12,17:01～18:00,0.0857,0.0755,0.0799,
江戸川 (Edogawa),2013-12-12,16:01～17:00,0.0864,0.0737,0.0797,
江戸川 (Edogawa),2013-12-12,15:01～16:00,0.0861,0.0742,0.0797,
江戸川 (Edogawa),2013-12-12,14:01～15:00,0.0868,0.0752,0.0805,
江戸川 (Edogawa),2013-12-12,13:01～14:00,0.0868,0.0756,0.0810,
江戸川 (Edogawa),2013-12-12,12:01～13:00,0.0884,0.0741,0.0806,
江戸川 (Edogawa),2013-12-12,11:01～12:00,0.0880,0.0773,0.0813,
江戸川 (Edogawa),2013-12-12,10:01～11:00,0.0876,0.0739,0.0802,
江戸川 (Edogawa),2013-12-12,09:01～10:00,0.0857,0.0745,0.0801,
江戸川 (Edogawa),2013-12-12,08:01～09:00,0.0865,0.0724,0.0799,
江戸川 (Edogawa),2013-12-12,07:01～08:00,0.0840,0.0744,0.0798,
江戸川 (Edogawa),2013-12-12,06:01～07:00,0.0875,0.0722,0.0799,
江戸川 (Edogawa),2013-12-12,05:01～06:00,0.0869,0.0728,0.0794,
江戸川 (Edogawa),2013-12-12,04:01～05:00,0.0863,0.0737,0.0799,
江戸川 (Edogawa),2013-12-12,03:01～04:00,0.0836,0.0732,0.0794,
江戸川 (Edogawa),2013-12-12,02:01～03:00,0.0855,0.0738,0.0800,
江戸川 (Edogawa),2013-12-12,01:01～02:00,0.0849,0.0743,0.0798,
江戸川 (Edogawa),2013-12-12,00:01～01:00,0.0838,0.0744,0.0795,
江戸川 (Edogawa),2013-12-11,23:01～24:00,0.0841,0.0733,0.0796,
江戸川 (Edogawa),2013-12-11,22:01～23:00,0.0851,0.0733,0.0793,
江戸川 (Edogawa),2013-12-11,21:01～22:00,0.0840,0.0739,0.0791,
江戸川 (Edogawa),2013-12-11,20:01～21:00,0.0851,0.0734,0.0795,
江戸川 (Edogawa),2013-12-11,19:01～20:00,0.0856,0.0737,0.0794,
江戸川 (Edogawa),2013-12-11,18:01～19:00,0.0859,0.0743,0.0794,
江戸川 (Edogawa),2013-12-11,17:01～18:00,0.0841,0.0757,0.0795,
江戸川 (Edogawa),2013-12-11,16:01～17:00,0.0849,0.0735,0.0792,
江戸川 (Edogawa),2013-12-11,15:01～16:00,0.0863,0.0748,0.0803,
江戸川 (Edogawa),2013-12-11,14:01～15:00,0.0866,0.0737,0.0795,
江戸川 (Edogawa),2013-12-11,13:01～14:00,0.0841,0.0744,0.0794,
江戸川 (Edogawa),2013-12-11,12:01～13:00,0.0850,0.0744,0.0799,
江戸川 (Edogawa),2013-12-11,11:01～12:00,0.0852,0.0746,0.0793,
江戸川 (Edogawa),2013-12-11,10:01～11:00,0.0843,0.0736,0.0795,
江戸川 (Edogawa),2013-12-11,09:01～10:00,0.0828,0.0737,0.0785,
江戸川 (Edogawa),2013-12-11,08:01～09:00,0.0835,0.0732,0.0782,
江戸川 (Edogawa),2013-12-11,07:01～08:00,0.0819,0.0722,0.0776,
江戸川 (Edogawa),2013-12-11,06:01～07:00,0.0847,0.0725,0.0783,
江戸川 (Edogawa),2013-12-11,05:01～06:00,0.0834,0.0732,0.0780,
江戸川 (Edogawa),2013-12-11,04:01～05:00,0.0831,0.0734,0.0786,
江戸川 (Edogawa),2013-12-11,03:01～04:00,0.0856,0.0748,0.0793,
江戸川 (Edogawa),2013-12-11,02:01～03:00,0.0849,0.0733,0.0790,
江戸川 (Edogawa),2013-12-11,01:01～02:00,0.0846,0.0735,0.0791,
江戸川 (Edogawa),2013-12-11,00:01～01:00,0.0853,0.0731,0.0787,
江戸川 (Edogawa),2013-12-10,23:01～24:00,0.0842,0.0731,0.0785,
江戸川 (Edogawa),2013-12-10,22:01～23:00,0.0849,0.0726,0.0790,
江戸川 (Edogawa),2013-12-10,21:01～22:00,0.0839,0.0732,0.0786,
江戸川 (Edogawa),2013-12-10,20:01～21:00,0.0858,0.0734,0.0786,
江戸川 (Edogawa),2013-12-10,19:01～20:00,0.0848,0.0732,0.0784,
江戸川 (Edogawa),2013-12-10,18:01～19:00,0.0832,0.0730,0.0788,
江戸川 (Edogawa),2013-12-10,17:01～18:00,0.0855,0.0735,0.0795,
江戸川 (Edogawa),2013-12-10,16:01～17:00,0.0846,0.0733,0.0794,
江戸川 (Edogawa),2013-12-10,15:01～16:00,0.0895,0.0746,0.0797,
江戸川 (Edogawa),2013-12-10,14:01～15:00,0.0860,0.0739,0.0800,
江戸川 (Edogawa),2013-12-10,13:01～14:00,0.0881,0.0744,0.0802,
江戸川 (Edogawa),2013-12-10,12:01～13:00,0.0914,0.0781,0.0843,
江戸川 (Edogawa),2013-12-10,11:01～12:00,0.0963,0.0845,0.0905,
江戸川 (Edogawa),2013-12-10,10:01～11:00,0.0974,0.0796,0.0878,
江戸川 (Edogawa),2013-12-10,09:01～10:00,0.0919,0.0789,0.0851,
江戸川 (Edogawa),2013-12-10,08:01～09:00,0.0934,0.0779,0.0838,
江戸川 (Edogawa),2013-12-10,07:01～08:00,0.0891,0.0765,0.0823,
江戸川 (Edogawa),2013-12-10,06:01～07:00,0.0876,0.0769,0.0825,
江戸川 (Edogawa),2013-12-10,05:01～06:00,0.0885,0.0766,0.0821,
江戸川 (Edogawa),2013-12-10,04:01～05:00,0.0888,0.0764,0.0821,
江戸川 (Edogawa),2013-12-10,03:01～04:00,0.0885,0.0770,0.0824,
江戸川 (Edogawa),2013-12-10,02:01～03:00,0.0866,0.0761,0.0816,
江戸川 (Edogawa),2013-12-10,01:01～02:00,0.0898,0.0772,0.0825,
江戸川 (Edogawa),2013-12-10,00:01～01:00,0.0861,0.0778,0.0818,
江戸川 (Edogawa),2013-12-09,23:01～24:00,0.0864,0.0740,0.0814,
江戸川 (Edogawa),2013-12-09,22:01～23:00,0.0876,0.0754,0.0820,
江戸川 (Edogawa),2013-12-09,21:01～22:00,0.0855,0.0757,0.0814,
江戸川 (Edogawa),2013-12-09,20:01～21:00,0.0883,0.0764,0.0817,
江戸川 (Edogawa),2013-12-09,19:01～20:00,0.0855,0.0738,0.0811,
江戸川 (Edogawa),2013-12-09,18:01～19:00,0.0878,0.0767,0.0817,
江戸川 (Edogawa),2013-12-09,17:01～18:00,0.0885,0.0764,0.0818,
江戸川 (Edogawa),2013-12-09,16:01～17:00,0.0883,0.0742,0.0816,
江戸川 (Edogawa),2013-12-09,15:01～16:00,0.0886,0.0757,0.0824,
江戸川 (Edogawa),2013-12-09,14:01～15:00,0.0880,0.0781,0.0824,
江戸川 (Edogawa),2013-12-09,13:01～14:00,0.0887,0.0767,0.0821,
江戸川 (Edogawa),2013-12-09,12:01～13:00,0.0910,0.0773,0.0825,
江戸川 (Edogawa),2013-12-09,11:01～12:00,0.0895,0.0781,0.0828,
江戸川 (Edogawa),2013-12-09,10:01～11:00,0.0864,0.0762,0.0813,
江戸川 (Edogawa),2013-12-09,09:01～10:00,0.0873,0.0773,0.0825,
江戸川 (Edogawa),2013-12-09,08:01～09:00,0.0870,0.0757,0.0815,
江戸川 (Edogawa),2013-12-09,07:01～08:00,0.0861,0.0742,0.0810,
江戸川 (Edogawa),2013-12-09,06:01～07:00,0.0860,0.0762,0.0816,
江戸川 (Edogawa),2013-12-09,05:01～06:00,0.0877,0.0751,0.0812,
江戸川 (Edogawa),2013-12-09,04:01～05:00,0.0863,0.0759,0.0811,
江戸川 (Edogawa),2013-12-09,03:01～04:00,0.0866,0.0753,0.0810,
江戸川 (Edogawa),2013-12-09,02:01～03:00,0.0860,0.0744,0.0804,
江戸川 (Edogawa),2013-12-09,01:01～02:00,0.0876,0.0737,0.0806,
江戸川 (Edogawa),2013-12-09,00:01～01:00,0.0856,0.0766,0.0806,
